Time,TemperatureF,DewpointF,PressureIn,WindDirection,WindDirectionDegrees,WindSpeedMPH,WindSpeedGustMPH,Humidity,HourlyPrecipIn,Conditions,Clouds,dailyrainin,SoftwareType,DateUTC
2013-08-08 00:01:00,61.5,54.3,18.79,NNW,329,0.0,0.0,77,0.00,,OVC,0.00,VWS V13.01,2013-08-08 05:01:00,
2013-08-08 00:06:00,61.5,54.3,18.79,NNW,329,0.0,0.0,77,0.00,,OVC,0.00,VWS V13.01,2013-08-08 05:06:00,
2013-08-08 00:11:00,61.3,54.2,18.79,NNW,329,0.0,0.0,77,0.00,,OVC,0.00,VWS V13.01,2013-08-08 05:11:00,
2013-08-08 00:16:00,61.5,54.8,18.79,NNW,329,0.0,0.0,79,0.00,,OVC,0.00,VWS V13.01,2013-08-08 05:16:00,
2013-08-08 00:21:00,61.7,55.0,18.79,NNW,329,0.0,0.0,79,0.00,,OVC,0.00,VWS V13.01,2013-08-08 05:21:00,
2013-08-08 00:26:00,61.7,55.0,18.79,NNW,329,0.0,0.0,79,0.00,,OVC,0.00,VWS V13.01,2013-08-08 05:26:00,
2013-08-08 00:31:00,61.9,55.7,18.79,NNW,329,0.0,0.0,80,0.00,,OVC,0.00,VWS V13.01,2013-08-08 05:31:00,
2013-08-08 00:36:00,62.2,56.0,18.79,NNW,329,0.0,0.0,80,0.00,,OVC,0.00,VWS V13.01,2013-08-08 05:36:00,
2013-08-08 00:41:00,62.4,56.2,18.79,NNW,329,0.0,0.0,80,0.00,,OVC,0.00,VWS V13.01,2013-08-08 05:41:00,
2013-08-08 00:46:00,62.4,56.2,18.79,NNW,329,0.0,0.0,80,0.00,,OVC,0.00,VWS V13.01,2013-08-08 05:46:00,
2013-08-08 00:51:00,62.4,56.2,18.79,NNW,329,0.0,0.0,80,0.00,,OVC,0.00,VWS V13.01,2013-08-08 05:51:00,
2013-08-08 00:55:00,62.4,56.2,18.79,NNW,329,0.0,0.0,80,0.00,,OVC,0.00,VWS V13.01,2013-08-08 05:55:00,
2013-08-08 01:00:00,62.4,56.2,18.79,NNW,329,0.0,0.0,80,0.00,,OVC,0.00,VWS V13.01,2013-08-08 06:00:00,
2013-08-08 01:05:00,62.4,56.2,18.79,NNW,329,0.0,0.0,80,0.00,,OVC,0.00,VWS V13.01,2013-08-08 06:05:00,
2013-08-08 01:10:00,62.4,56.2,18.79,NNW,329,0.0,0.0,80,0.00,,OVC,0.00,VWS V13.01,2013-08-08 06:10:00,
2013-08-08 01:15:00,62.4,56.2,18.79,NNE,19,3.6,3.6,80,0.00,,OVC,0.00,VWS V13.01,2013-08-08 06:15:00,
2013-08-08 01:20:00,62.4,56.2,18.79,NNE,32,3.1,3.1,80,0.00,,OVC,0.00,VWS V13.01,2013-08-08 06:20:00,
2013-08-08 01:25:00,62.6,56.4,18.79,North,2,0.0,2.2,80,0.00,,OVC,0.00,VWS V13.01,2013-08-08 06:25:00,
2013-08-08 01:30:00,62.8,56.5,18.79,North,3,2.2,4.0,80,0.00,,OVC,0.00,VWS V13.01,2013-08-08 06:30:00,
2013-08-08 01:35:00,63.1,56.9,18.79,North,4,2.7,4.0,80,0.00,,OVC,0.00,VWS V13.01,2013-08-08 06:35:00,
2013-08-08 01:40:00,63.5,56.2,18.79,NE,46,3.1,3.1,77,0.00,,OVC,0.00,VWS V13.01,2013-08-08 06:40:00,
2013-08-08 01:45:00,63.5,55.7,18.79,North,0,0.0,0.0,76,0.00,,OVC,0.00,VWS V13.01,2013-08-08 06:45:00,
2013-08-08 01:50:00,63.5,55.2,18.79,North,0,0.0,2.7,74,0.00,,OVC,0.00,VWS V13.01,2013-08-08 06:50:00,
2013-08-08 01:55:00,63.5,55.2,18.79,North,2,0.0,0.0,74,0.00,,OVC,0.00,VWS V13.01,2013-08-08 06:55:00,
2013-08-08 02:00:00,63.1,54.3,18.79,NNE,18,0.0,0.0,73,0.00,,OVC,0.00,VWS V13.01,2013-08-08 07:00:00,
2013-08-08 02:05:00,63.1,54.3,18.79,NNW,344,0.0,2.7,73,0.00,,OVC,0.00,VWS V13.01,2013-08-08 07:05:00,
2013-08-08 02:10:00,62.8,53.4,18.79,North,349,0.0,0.0,71,0.00,,OVC,0.00,VWS V13.01,2013-08-08 07:10:00,
2013-08-08 02:15:00,62.6,53.3,18.79,NNW,348,0.0,0.0,71,0.00,,OVC,0.00,VWS V13.01,2013-08-08 07:15:00,
2013-08-08 02:20:00,62.2,53.5,18.79,North,349,2.2,2.2,73,0.00,,OVC,0.00,VWS V13.01,2013-08-08 07:20:00,
2013-08-08 02:25:00,62.2,53.5,18.79,NNW,348,3.6,3.6,73,0.00,,OVC,0.00,VWS V13.01,2013-08-08 07:25:00,
2013-08-08 02:30:00,62.2,53.5,18.79,North,353,0.0,0.0,73,0.00,,OVC,0.00,VWS V13.01,2013-08-08 07:30:00,
2013-08-08 02:35:00,62.2,53.5,18.79,North,353,0.0,2.2,73,0.00,,OVC,0.00,VWS V13.01,2013-08-08 07:35:00,
2013-08-08 02:40:00,62.2,53.5,18.79,North,0,0.0,2.2,73,0.00,,OVC,0.00,VWS V13.01,2013-08-08 07:40:00,
2013-08-08 02:45:00,62.4,53.1,18.79,North,2,2.7,2.7,71,0.00,,OVC,0.00,VWS V13.01,2013-08-08 07:45:00,
2013-08-08 02:50:00,62.4,53.1,18.79,North,11,2.7,2.7,71,0.00,,OVC,0.00,VWS V13.01,2013-08-08 07:50:00,
2013-08-08 02:55:00,62.2,52.4,18.79,North,11,0.0,0.0,70,0.00,,OVC,0.00,VWS V13.01,2013-08-08 07:55:00,
2013-08-08 03:00:00,61.9,52.0,18.79,North,11,2.7,2.7,70,0.00,,OVC,0.00,VWS V13.01,2013-08-08 08:00:00,
2013-08-08 03:05:00,61.7,51.8,18.79,North,11,0.0,0.0,70,0.00,,OVC,0.00,VWS V13.01,2013-08-08 08:05:00,
2013-08-08 03:10:00,61.7,52.4,18.79,North,11,2.2,2.2,71,0.00,,OVC,0.00,VWS V13.01,2013-08-08 08:10:00,
2013-08-08 03:15:00,61.7,52.4,18.79,North,11,0.0,2.2,71,0.00,,OVC,0.00,VWS V13.01,2013-08-08 08:15:00,
2013-08-08 03:20:00,61.7,52.4,18.79,North,11,0.0,0.0,71,0.00,,OVC,0.00,VWS V13.01,2013-08-08 08:20:00,
2013-08-08 03:25:00,61.3,52.0,18.79,North,11,0.0,0.0,71,0.00,,OVC,0.00,VWS V13.01,2013-08-08 08:25:00,
2013-08-08 03:30:00,61.2,51.9,18.79,North,11,0.0,0.0,71,0.00,,OVC,0.00,VWS V13.01,2013-08-08 08:30:00,
2013-08-08 03:35:00,61.0,52.2,18.79,North,11,0.0,0.0,73,0.00,,OVC,0.00,VWS V13.01,2013-08-08 08:35:00,
2013-08-08 03:40:00,61.0,52.2,18.79,North,11,0.0,0.0,73,0.00,,OVC,0.00,VWS V13.01,2013-08-08 08:40:00,
2013-08-08 03:45:00,60.6,51.9,18.79,North,11,0.0,0.0,73,0.00,,OVC,0.00,VWS V13.01,2013-08-08 08:45:00,
2013-08-08 03:50:00,60.3,51.5,18.79,North,11,0.0,0.0,73,0.00,,OVC,0.00,VWS V13.01,2013-08-08 08:50:00,
2013-08-08 03:55:00,60.1,51.9,18.79,North,11,0.0,0.0,74,0.00,,OVC,0.00,VWS V13.01,2013-08-08 08:55:00,
2013-08-08 04:00:00,60.1,51.9,18.79,North,11,0.0,0.0,74,0.00,,OVC,0.00,VWS V13.01,2013-08-08 09:00:00,
2013-08-08 04:05:00,60.1,51.9,18.79,North,11,0.0,0.0,74,0.00,,OVC,0.00,VWS V13.01,2013-08-08 09:05:00,
2013-08-08 04:10:00,60.1,52.4,18.79,North,11,0.0,0.0,76,0.00,,OVC,0.00,VWS V13.01,2013-08-08 09:10:00,
2013-08-08 04:15:00,59.9,52.2,18.79,North,11,0.0,0.0,76,0.00,,OVC,0.00,VWS V13.01,2013-08-08 09:15:00,
2013-08-08 04:20:00,59.7,52.1,18.79,North,11,2.7,2.7,76,0.00,,OVC,0.00,VWS V13.01,2013-08-08 09:20:00,
2013-08-08 04:25:00,59.7,52.6,18.79,NNW,346,0.0,0.0,77,0.00,,OVC,0.00,VWS V13.01,2013-08-08 09:25:00,
2013-08-08 04:30:00,59.9,52.8,18.79,North,7,0.0,0.0,77,0.00,,OVC,0.00,VWS V13.01,2013-08-08 09:30:00,
2013-08-08 04:35:00,59.7,52.6,18.79,North,7,0.0,0.0,77,0.00,,OVC,0.00,VWS V13.01,2013-08-08 09:35:00,
2013-08-08 04:40:00,59.5,52.4,18.79,North,7,0.0,0.0,77,0.00,,OVC,0.00,VWS V13.01,2013-08-08 09:40:00,
2013-08-08 04:45:00,59.4,52.2,18.79,North,7,0.0,0.0,77,0.00,,OVC,0.00,VWS V13.01,2013-08-08 09:45:00,
2013-08-08 04:50:00,59.2,52.1,18.79,NNW,348,0.0,0.0,77,0.00,,OVC,0.00,VWS V13.01,2013-08-08 09:50:00,
2013-08-08 04:55:00,59.2,52.1,18.79,North,11,0.0,2.2,77,0.00,,OVC,0.00,VWS V13.01,2013-08-08 09:55:00,
2013-08-08 05:00:00,59.4,52.7,18.79,North,11,3.1,3.1,79,0.00,,OVC,0.00,VWS V13.01,2013-08-08 10:00:00,
2013-08-08 05:05:00,59.7,53.1,18.79,NNE,24,3.6,4.0,79,0.00,,OVC,0.00,VWS V13.01,2013-08-08 10:05:00,
2013-08-08 05:10:00,60.1,53.4,18.79,North,357,4.0,4.0,79,0.00,,OVC,0.00,VWS V13.01,2013-08-08 10:10:00,
2013-08-08 05:15:00,60.4,54.3,18.79,North,9,0.0,2.2,80,0.00,,OVC,0.00,VWS V13.01,2013-08-08 10:15:00,
2013-08-08 05:20:00,60.6,54.5,18.79,North,7,0.0,3.1,80,0.00,,OVC,0.00,VWS V13.01,2013-08-08 10:20:00,
2013-08-08 05:25:00,60.8,54.6,18.79,NNW,341,0.0,2.7,80,0.00,,OVC,0.00,VWS V13.01,2013-08-08 10:25:00,
2013-08-08 05:30:00,61.0,54.8,18.79,NNE,15,0.0,3.1,80,0.00,,OVC,0.00,VWS V13.01,2013-08-08 10:30:00,
2013-08-08 05:35:00,61.2,55.0,18.79,NNE,15,0.0,0.0,80,0.00,,OVC,0.00,VWS V13.01,2013-08-08 10:35:00,
2013-08-08 05:40:00,61.3,55.2,18.79,NNE,15,0.0,0.0,80,0.00,,OVC,0.00,VWS V13.01,2013-08-08 10:40:00,
2013-08-08 05:45:00,61.3,55.2,18.79,NNE,15,0.0,0.0,80,0.00,,OVC,0.00,VWS V13.01,2013-08-08 10:45:00,
2013-08-08 05:50:00,61.3,55.6,18.79,NNE,15,0.0,0.0,82,0.00,,OVC,0.00,VWS V13.01,2013-08-08 10:50:00,
2013-08-08 05:55:00,61.5,55.8,18.79,NNE,15,0.0,0.0,82,0.00,,OVC,0.00,VWS V13.01,2013-08-08 10:55:00,
2013-08-08 06:00:00,61.7,56.0,18.79,NNE,15,0.0,2.7,82,0.00,,OVC,0.00,VWS V13.01,2013-08-08 11:00:00,
2013-08-08 06:05:00,61.7,56.0,18.79,NNE,15,0.0,0.0,82,0.00,,OVC,0.00,VWS V13.01,2013-08-08 11:05:00,
2013-08-08 06:10:00,61.7,56.0,18.79,NNE,15,0.0,0.0,82,0.00,,OVC,0.00,VWS V13.01,2013-08-08 11:10:00,
2013-08-08 06:15:00,61.5,55.8,18.79,North,5,3.1,3.1,82,0.00,,OVC,0.00,VWS V13.01,2013-08-08 11:15:00,
2013-08-08 06:20:00,61.3,55.6,18.79,North,5,0.0,2.2,82,0.00,,OVC,0.00,VWS V13.01,2013-08-08 11:20:00,
2013-08-08 06:25:00,61.3,55.6,18.79,NNE,22,3.1,4.0,82,0.00,,OVC,0.00,VWS V13.01,2013-08-08 11:25:00,
2013-08-08 06:30:00,61.3,56.1,18.79,North,357,2.7,3.1,83,0.00,,OVC,0.00,VWS V13.01,2013-08-08 11:30:00,
2013-08-08 06:35:00,61.3,56.1,18.79,NNE,28,0.0,0.0,83,0.00,,OVC,0.00,VWS V13.01,2013-08-08 11:35:00,
2013-08-08 06:40:00,61.5,56.8,18.79,NNE,28,0.0,0.0,84,0.00,,OVC,0.00,VWS V13.01,2013-08-08 11:40:00,
2013-08-08 06:45:00,61.5,56.8,18.79,NNE,28,0.0,0.0,84,0.00,,OVC,0.00,VWS V13.01,2013-08-08 11:45:00,
2013-08-08 06:50:00,61.7,56.9,18.79,NNE,28,0.0,0.0,84,0.00,,OVC,0.00,VWS V13.01,2013-08-08 11:50:00,
2013-08-08 06:55:00,61.7,57.4,18.79,NNE,28,0.0,0.0,86,0.00,,OVC,0.00,VWS V13.01,2013-08-08 11:55:00,
2013-08-08 07:00:00,61.9,57.6,18.79,NNE,28,0.0,0.0,86,0.00,,OVC,0.00,VWS V13.01,2013-08-08 12:00:00,
2013-08-08 07:05:00,61.9,57.6,18.79,NNE,28,0.0,0.0,86,0.00,,OVC,0.00,VWS V13.01,2013-08-08 12:05:00,
2013-08-08 07:10:00,62.1,58.2,18.79,NNE,28,0.0,0.0,87,0.00,,OVC,0.00,VWS V13.01,2013-08-08 12:10:00,
2013-08-08 07:15:00,62.4,59.0,18.79,NNE,28,0.0,0.0,89,0.00,,OVC,0.00,VWS V13.01,2013-08-08 12:15:00,
2013-08-08 07:20:00,63.0,60.5,18.79,NNE,28,0.0,0.0,92,0.00,,OVC,0.00,VWS V13.01,2013-08-08 12:20:00,
2013-08-08 07:25:00,63.5,61.4,18.79,SE,131,2.7,5.8,93,0.00,,OVC,0.00,VWS V13.01,2013-08-08 12:25:00,
2013-08-08 07:30:00,64.2,62.1,18.79,ESE,117,0.0,0.0,93,0.00,,OVC,0.00,VWS V13.01,2013-08-08 12:30:00,
2013-08-08 07:35:00,64.8,62.7,18.79,ESE,111,0.0,2.2,93,0.00,,OVC,0.00,VWS V13.01,2013-08-08 12:35:00,
2013-08-08 07:40:00,65.1,62.1,18.79,ENE,59,0.0,0.0,90,0.00,,OVC,0.00,VWS V13.01,2013-08-08 12:40:00,
2013-08-08 07:45:00,65.7,61.8,18.79,North,9,0.0,2.2,87,0.00,,OVC,0.00,VWS V13.01,2013-08-08 12:45:00,
2013-08-08 07:50:00,65.8,61.0,18.79,SSE,147,2.7,3.6,84,0.00,,OVC,0.00,VWS V13.01,2013-08-08 12:50:00,
2013-08-08 07:55:00,66.0,60.2,18.79,ENE,64,2.2,4.0,82,0.00,,OVC,0.00,VWS V13.01,2013-08-08 12:55:00,
2013-08-08 08:00:00,66.4,59.5,18.79,NE,56,2.2,4.0,79,0.00,,OVC,0.00,VWS V13.01,2013-08-08 13:00:00,
2013-08-08 08:05:00,66.7,58.9,18.79,ENE,63,0.0,3.6,76,0.00,,OVC,0.00,VWS V13.01,2013-08-08 13:05:00,
2013-08-08 08:09:00,66.7,58.3,18.79,NE,41,0.0,3.1,74,0.00,,OVC,0.00,VWS V13.01,2013-08-08 13:09:00,
2013-08-08 08:14:00,66.6,57.6,18.79,SE,131,2.7,3.6,73,0.00,,OVC,0.00,VWS V13.01,2013-08-08 13:14:00,
2013-08-08 08:19:00,66.6,57.1,18.79,SE,135,3.1,5.4,71,0.00,,OVC,0.00,VWS V13.01,2013-08-08 13:19:00,
2013-08-08 08:24:00,66.7,57.2,18.79,SE,130,4.0,4.0,71,0.00,,OVC,0.00,VWS V13.01,2013-08-08 13:24:00,
2013-08-08 08:29:00,67.3,57.8,18.79,SE,138,3.6,3.6,71,0.00,,OVC,0.00,VWS V13.01,2013-08-08 13:29:00,
2013-08-08 08:34:00,67.8,57.7,18.79,NE,55,0.0,0.0,70,0.00,,OVC,0.00,VWS V13.01,2013-08-08 13:34:00,
2013-08-08 08:39:00,68.4,57.1,18.79,SE,137,0.0,2.2,67,0.00,,OVC,0.00,VWS V13.01,2013-08-08 13:39:00,
2013-08-08 08:44:00,68.5,56.7,18.79,SE,126,3.6,3.6,66,0.00,,OVC,0.00,VWS V13.01,2013-08-08 13:44:00,
2013-08-08 08:49:00,68.5,56.0,18.79,East,88,3.1,3.1,64,0.00,,OVC,0.00,VWS V13.01,2013-08-08 13:49:00,
2013-08-08 08:54:00,68.9,55.8,18.79,SE,138,4.0,5.4,63,0.00,,OVC,0.00,VWS V13.01,2013-08-08 13:54:00,
2013-08-08 08:59:00,68.2,55.1,18.79,SE,131,6.7,6.7,63,0.00,,OVC,0.00,VWS V13.01,2013-08-08 13:59:00,
2013-08-08 09:04:00,68.0,54.9,18.79,ESE,115,3.1,5.8,63,0.00,,OVC,0.00,VWS V13.01,2013-08-08 14:04:00,
2013-08-08 09:09:00,68.2,55.1,18.79,ENE,60,3.1,4.0,63,0.00,,OVC,0.00,VWS V13.01,2013-08-08 14:09:00,
2013-08-08 09:14:00,68.5,55.4,18.79,SE,140,3.1,3.1,63,0.00,,OVC,0.00,VWS V13.01,2013-08-08 14:14:00,
2013-08-08 09:19:00,68.9,55.8,18.79,ESE,117,2.7,2.7,63,0.00,,OVC,0.00,VWS V13.01,2013-08-08 14:19:00,
2013-08-08 09:24:00,69.3,55.5,18.79,SE,133,2.2,3.1,61,0.00,,OVC,0.00,VWS V13.01,2013-08-08 14:24:00,
2013-08-08 09:29:00,69.1,54.7,18.79,SE,133,3.1,4.0,60,0.00,,OVC,0.00,VWS V13.01,2013-08-08 14:29:00,
2013-08-08 09:34:00,69.3,54.8,18.79,SE,129,3.1,3.1,60,0.00,,OVC,0.00,VWS V13.01,2013-08-08 14:34:00,
2013-08-08 09:39:00,69.6,55.2,18.79,SE,138,5.8,5.8,60,0.00,,OVC,0.00,VWS V13.01,2013-08-08 14:39:00,
2013-08-08 09:44:00,69.3,54.8,18.79,SE,137,3.6,4.0,60,0.00,,OVC,0.00,VWS V13.01,2013-08-08 14:44:00,
2013-08-08 09:49:00,68.9,54.5,18.79,SE,134,0.0,0.0,60,0.00,,OVC,0.00,VWS V13.01,2013-08-08 14:49:00,
2013-08-08 09:54:00,68.9,54.5,18.79,SE,140,2.7,3.1,60,0.00,,OVC,0.00,VWS V13.01,2013-08-08 14:54:00,
2013-08-08 09:59:00,68.9,54.5,18.79,SE,135,2.7,2.7,60,0.00,,OVC,0.00,VWS V13.01,2013-08-08 14:59:00,
2013-08-08 10:04:00,69.3,54.8,18.79,North,357,2.7,2.7,60,0.00,,OVC,0.00,VWS V13.01,2013-08-08 15:04:00,
2013-08-08 10:09:00,69.8,55.3,18.79,SE,132,0.0,2.2,60,0.00,,OVC,0.00,VWS V13.01,2013-08-08 15:09:00,
2013-08-08 10:14:00,69.6,55.2,18.79,North,0,2.2,2.2,60,0.00,,OVC,0.00,VWS V13.01,2013-08-08 15:14:00,
2013-08-08 10:19:00,69.8,54.7,18.79,NNE,31,3.6,3.6,59,0.00,,OVC,0.00,VWS V13.01,2013-08-08 15:19:00,
2013-08-08 10:24:00,69.6,55.2,18.79,NNE,12,4.0,4.0,60,0.00,,OVC,0.00,VWS V13.01,2013-08-08 15:24:00,
2013-08-08 10:29:00,69.4,55.0,18.79,NNE,20,2.2,3.1,60,0.00,,OVC,0.00,VWS V13.01,2013-08-08 15:29:00,
2013-08-08 10:34:00,70.0,55.5,18.79,NNE,22,0.0,3.6,60,0.00,,OVC,0.00,VWS V13.01,2013-08-08 15:34:00,
2013-08-08 10:39:00,70.7,55.5,18.79,NNE,15,4.5,4.9,59,0.00,,OVC,0.00,VWS V13.01,2013-08-08 15:39:00,
2013-08-08 10:44:00,70.5,55.3,18.79,NNE,12,0.0,0.0,59,0.00,,OVC,0.00,VWS V13.01,2013-08-08 15:44:00,
2013-08-08 10:49:00,69.8,54.7,18.79,SE,133,2.2,2.2,59,0.00,,OVC,0.00,VWS V13.01,2013-08-08 15:49:00,
2013-08-08 10:54:00,69.6,54.5,18.79,ENE,75,0.0,0.0,59,0.00,,OVC,0.00,VWS V13.01,2013-08-08 15:54:00,
2013-08-08 10:59:00,69.4,54.3,18.79,North,0,0.0,0.0,59,0.00,,OVC,0.00,VWS V13.01,2013-08-08 15:59:00,
2013-08-08 11:04:00,69.4,54.3,18.79,SE,127,0.0,0.0,59,0.00,,OVC,0.00,VWS V13.01,2013-08-08 16:04:00,
2013-08-08 11:09:00,69.4,54.3,18.79,SE,126,0.0,0.0,59,0.00,,OVC,0.00,VWS V13.01,2013-08-08 16:09:00,
2013-08-08 11:14:00,69.6,54.5,18.79,North,3,2.2,2.7,59,0.00,,OVC,0.00,VWS V13.01,2013-08-08 16:14:00,
2013-08-08 11:19:00,69.8,54.7,18.79,North,6,0.0,0.0,59,0.00,,OVC,0.00,VWS V13.01,2013-08-08 16:19:00,
2013-08-08 11:24:00,69.8,54.7,18.79,NNE,14,0.0,0.0,59,0.00,,OVC,0.00,VWS V13.01,2013-08-08 16:24:00,
2013-08-08 11:29:00,69.8,54.7,18.79,NNE,15,0.0,0.0,59,0.00,,OVC,0.00,VWS V13.01,2013-08-08 16:29:00,
2013-08-08 11:34:00,69.8,54.7,18.79,NNE,15,0.0,0.0,59,0.00,,OVC,0.00,VWS V13.01,2013-08-08 16:34:00,
2013-08-08 11:39:00,69.8,54.7,18.79,NNE,15,0.0,0.0,59,0.00,,OVC,0.00,VWS V13.01,2013-08-08 16:39:00,
2013-08-08 11:44:00,70.0,54.8,18.79,East,98,2.2,2.2,59,0.00,,OVC,0.00,VWS V13.01,2013-08-08 16:44:00,
2013-08-08 11:49:00,70.0,54.8,18.79,East,98,0.0,0.0,59,0.00,,OVC,0.00,VWS V13.01,2013-08-08 16:49:00,
2013-08-08 11:54:00,70.2,55.0,18.79,East,98,0.0,0.0,59,0.00,,OVC,0.00,VWS V13.01,2013-08-08 16:54:00,
2013-08-08 12:08:00,70.9,55.0,18.79,NE,50,0.0,0.0,57,0.00,,OVC,0.00,VWS V13.01,2013-08-08 17:08:00,
2013-08-08 12:13:00,71.4,55.5,18.79,North,7,2.7,2.7,57,0.00,,OVC,0.00,VWS V13.01,2013-08-08 17:13:00,
2013-08-08 12:18:00,71.8,55.8,18.79,NNE,22,2.2,3.1,57,0.00,,OVC,0.00,VWS V13.01,2013-08-08 17:18:00,
2013-08-08 12:23:00,71.6,55.7,18.79,NNE,24,2.7,3.1,57,0.00,,OVC,0.00,VWS V13.01,2013-08-08 17:23:00,
2013-08-08 12:28:00,71.4,55.5,18.79,NNE,29,3.1,3.1,57,0.00,,OVC,0.00,VWS V13.01,2013-08-08 17:28:00,
2013-08-08 12:33:00,71.4,55.5,18.79,NNE,23,0.0,0.0,57,0.00,,OVC,0.00,VWS V13.01,2013-08-08 17:33:00,
2013-08-08 12:38:00,72.5,56.5,18.79,NNE,12,3.6,3.6,57,0.00,,OVC,0.00,VWS V13.01,2013-08-08 17:38:00,
2013-08-08 12:43:00,73.2,57.2,18.79,NE,52,0.0,2.7,57,0.00,,OVC,0.00,VWS V13.01,2013-08-08 17:43:00,
2013-08-08 12:48:00,73.8,57.0,18.79,North,353,0.0,0.0,56,0.00,,OVC,0.00,VWS V13.01,2013-08-08 17:48:00,
2013-08-08 12:53:00,74.3,57.5,18.79,NE,53,0.0,0.0,56,0.00,,OVC,0.00,VWS V13.01,2013-08-08 17:53:00,
2013-08-08 12:58:00,73.9,57.2,18.79,SE,124,0.0,0.0,56,0.00,,OVC,0.00,VWS V13.01,2013-08-08 17:58:00,
2013-08-08 13:03:00,74.3,57.5,18.79,SSW,199,0.0,0.0,56,0.00,,OVC,0.00,VWS V13.01,2013-08-08 18:03:00,
2013-08-08 13:08:00,75.4,57.8,18.79,SSW,202,0.0,0.0,54,0.00,,OVC,0.00,VWS V13.01,2013-08-08 18:08:00,
2013-08-08 13:13:00,75.4,57.8,18.79,NE,50,0.0,0.0,54,0.00,,OVC,0.00,VWS V13.01,2013-08-08 18:13:00,
2013-08-08 13:18:00,74.7,57.8,18.79,ESE,122,0.0,0.0,56,0.00,,OVC,0.00,VWS V13.01,2013-08-08 18:18:00,
2013-08-08 13:23:00,74.1,57.3,18.79,SE,127,0.0,0.0,56,0.00,,OVC,0.00,VWS V13.01,2013-08-08 18:23:00,
2013-08-08 13:28:00,74.8,58.0,18.79,SE,124,2.2,2.2,56,0.00,,OVC,0.00,VWS V13.01,2013-08-08 18:28:00,
2013-08-08 13:33:00,76.1,58.4,18.79,SE,128,3.1,3.1,54,0.00,,OVC,0.00,VWS V13.01,2013-08-08 18:33:00,
2013-08-08 13:38:00,76.8,59.1,18.79,SW,215,0.0,0.0,54,0.00,,OVC,0.00,VWS V13.01,2013-08-08 18:38:00,
2013-08-08 13:43:00,77.2,59.4,18.79,NE,50,0.0,2.7,54,0.00,,OVC,0.00,VWS V13.01,2013-08-08 18:43:00,
2013-08-08 13:48:00,77.2,59.4,18.79,NE,46,2.7,2.7,54,0.00,,OVC,0.00,VWS V13.01,2013-08-08 18:48:00,
2013-08-08 14:04:00,76.1,58.4,18.79,ENE,65,2.7,2.7,54,0.00,,OVC,0.00,VWS V13.01,2013-08-08 19:04:00,
2013-08-08 14:16:00,75.6,57.9,18.79,NNE,19,2.7,3.1,54,0.00,,OVC,0.00,VWS V13.01,2013-08-08 19:16:00,
2013-08-08 14:21:00,75.6,57.9,18.79,ENE,57,0.0,0.0,54,0.00,,OVC,0.00,VWS V13.01,2013-08-08 19:21:00,
2013-08-08 14:26:00,75.9,58.3,18.79,North,6,4.0,5.4,54,0.00,,OVC,0.00,VWS V13.01,2013-08-08 19:26:00,
2013-08-08 14:31:00,75.7,58.1,18.79,North,5,4.9,4.9,54,0.00,,OVC,0.00,VWS V13.01,2013-08-08 19:31:00,
2013-08-08 14:36:00,75.4,57.8,18.79,NNE,12,3.6,4.0,54,0.00,,OVC,0.00,VWS V13.01,2013-08-08 19:36:00,
2013-08-08 14:41:00,75.0,58.2,18.79,North,4,0.0,0.0,56,0.00,,OVC,0.00,VWS V13.01,2013-08-08 19:41:00,
2013-08-08 14:46:00,74.7,57.8,18.79,North,4,0.0,0.0,56,0.00,,OVC,0.00,VWS V13.01,2013-08-08 19:46:00,
2013-08-08 14:51:00,74.5,57.7,18.79,North,357,3.6,3.6,56,0.00,,OVC,0.00,VWS V13.01,2013-08-08 19:51:00,
2013-08-08 14:56:00,74.5,57.7,18.79,North,357,0.0,0.0,56,0.00,,OVC,0.00,VWS V13.01,2013-08-08 19:56:00,
2013-08-08 15:01:00,74.5,57.7,18.79,North,357,0.0,0.0,56,0.00,,OVC,0.00,VWS V13.01,2013-08-08 20:01:00,
2013-08-08 15:06:00,74.8,58.0,18.79,SE,130,2.2,2.2,56,0.00,,OVC,0.00,VWS V13.01,2013-08-08 20:06:00,
2013-08-08 15:11:00,75.4,57.8,18.79,NE,54,3.1,3.1,54,0.00,,OVC,0.00,VWS V13.01,2013-08-08 20:11:00,
2013-08-08 15:16:00,75.9,58.3,18.79,NE,43,3.1,3.6,54,0.00,,OVC,0.00,VWS V13.01,2013-08-08 20:16:00,
2013-08-08 15:21:00,76.3,58.6,18.79,East,84,0.0,0.0,54,0.00,,OVC,0.00,VWS V13.01,2013-08-08 20:21:00,
2013-08-08 15:26:00,76.6,58.9,18.79,East,92,0.0,0.0,54,0.00,,OVC,0.00,VWS V13.01,2013-08-08 20:26:00,
2013-08-08 15:31:00,76.3,58.6,18.79,East,92,0.0,0.0,54,0.00,,OVC,0.00,VWS V13.01,2013-08-08 20:31:00,
2013-08-08 15:36:00,75.6,57.9,18.79,East,85,0.0,0.0,54,0.00,,OVC,0.00,VWS V13.01,2013-08-08 20:36:00,
2013-08-08 15:41:00,75.2,57.6,18.79,NNE,12,0.0,0.0,54,0.00,,OVC,0.00,VWS V13.01,2013-08-08 20:41:00,
2013-08-08 15:46:00,74.8,58.0,18.79,NNE,12,0.0,0.0,56,0.00,,OVC,0.00,VWS V13.01,2013-08-08 20:46:00,
2013-08-08 15:51:00,74.7,57.8,18.79,NNE,13,0.0,2.2,56,0.00,,OVC,0.00,VWS V13.01,2013-08-08 20:51:00,
2013-08-08 15:56:00,74.5,57.7,18.79,NNE,13,2.2,2.2,56,0.00,,OVC,0.00,VWS V13.01,2013-08-08 20:56:00,
2013-08-08 16:01:00,74.3,57.5,18.79,NNE,14,2.7,2.7,56,0.00,,OVC,0.00,VWS V13.01,2013-08-08 21:01:00,
2013-08-08 16:06:00,74.1,57.3,18.79,NNE,14,0.0,0.0,56,0.00,,OVC,0.00,VWS V13.01,2013-08-08 21:06:00,
2013-08-08 16:11:00,74.1,57.3,18.79,NNE,14,0.0,0.0,56,0.00,,OVC,0.00,VWS V13.01,2013-08-08 21:11:00,
2013-08-08 16:16:00,74.3,57.5,18.79,NNE,14,0.0,0.0,56,0.00,,OVC,0.00,VWS V13.01,2013-08-08 21:16:00,
2013-08-08 16:21:00,74.5,57.7,18.79,East,84,0.0,0.0,56,0.00,,OVC,0.00,VWS V13.01,2013-08-08 21:21:00,
2013-08-08 16:27:00,74.8,58.0,18.79,East,84,0.0,0.0,56,0.00,,OVC,0.00,VWS V13.01,2013-08-08 21:27:00,
2013-08-08 16:32:00,75.2,57.6,18.79,East,84,0.0,0.0,54,0.00,,OVC,0.00,VWS V13.01,2013-08-08 21:32:00,
2013-08-08 16:37:00,75.6,57.9,18.79,WSW,237,2.7,3.1,54,0.00,,OVC,0.00,VWS V13.01,2013-08-08 21:37:00,
2013-08-08 16:42:00,76.1,58.4,18.79,South,183,0.0,0.0,54,0.00,,OVC,0.00,VWS V13.01,2013-08-08 21:42:00,
2013-08-08 16:47:00,76.5,58.8,18.79,South,175,0.0,0.0,54,0.00,,OVC,0.00,VWS V13.01,2013-08-08 21:47:00,
2013-08-08 16:52:00,76.5,58.8,18.79,SW,223,0.0,0.0,54,0.00,,OVC,0.00,VWS V13.01,2013-08-08 21:52:00,
2013-08-08 16:58:00,76.3,58.6,18.79,SW,214,3.1,4.9,54,0.00,,OVC,0.00,VWS V13.01,2013-08-08 21:58:00,
2013-08-08 17:03:00,76.6,58.9,18.79,WSW,248,2.7,4.0,54,0.00,,OVC,0.00,VWS V13.01,2013-08-08 22:03:00,
2013-08-08 17:08:00,76.6,58.9,18.79,SSE,148,2.2,3.6,54,0.00,,OVC,0.00,VWS V13.01,2013-08-08 22:08:00,
2013-08-08 17:13:00,76.1,58.4,18.79,SSE,148,0.0,0.0,54,0.00,,OVC,0.00,VWS V13.01,2013-08-08 22:13:00,
2013-08-08 17:18:00,75.9,58.3,18.79,SE,138,2.7,4.0,54,0.00,,OVC,0.00,VWS V13.01,2013-08-08 22:18:00,
2013-08-08 17:23:00,75.7,58.1,18.79,NNE,16,2.7,3.6,54,0.00,,OVC,0.00,VWS V13.01,2013-08-08 22:23:00,
2013-08-08 17:28:00,75.7,58.1,18.79,NNE,21,0.0,0.0,54,0.00,,OVC,0.00,VWS V13.01,2013-08-08 22:28:00,
2013-08-08 17:33:00,75.6,57.9,18.79,NE,36,0.0,2.2,54,0.00,,OVC,0.00,VWS V13.01,2013-08-08 22:33:00,
2013-08-08 17:38:00,75.4,57.8,18.79,NNE,25,0.0,2.2,54,0.00,,OVC,0.00,VWS V13.01,2013-08-08 22:38:00,
2013-08-08 17:43:00,75.4,57.8,18.79,NNE,32,0.0,0.0,54,0.00,,OVC,0.00,VWS V13.01,2013-08-08 22:43:00,
2013-08-08 17:48:00,75.4,57.8,18.79,NNE,32,0.0,0.0,54,0.00,,OVC,0.00,VWS V13.01,2013-08-08 22:48:00,
2013-08-08 17:53:00,75.2,57.6,18.79,NNE,32,0.0,0.0,54,0.00,,OVC,0.00,VWS V13.01,2013-08-08 22:53:00,
2013-08-08 17:58:00,75.0,57.4,18.79,NE,34,0.0,0.0,54,0.00,,OVC,0.00,VWS V13.01,2013-08-08 22:58:00,
2013-08-08 18:03:00,75.0,57.4,18.79,NE,34,0.0,0.0,54,0.00,,OVC,0.00,VWS V13.01,2013-08-08 23:03:00,
2013-08-08 18:08:00,74.8,57.3,18.79,NE,34,0.0,2.2,54,0.00,,OVC,0.00,VWS V13.01,2013-08-08 23:08:00,
2013-08-08 18:13:00,74.7,57.1,18.79,NE,34,2.2,2.2,54,0.00,,OVC,0.00,VWS V13.01,2013-08-08 23:13:00,
2013-08-08 18:18:00,74.5,56.9,18.79,NE,34,0.0,0.0,54,0.00,,OVC,0.00,VWS V13.01,2013-08-08 23:18:00,
2013-08-08 18:23:00,74.5,56.9,18.79,NE,34,0.0,0.0,54,0.00,,OVC,0.00,VWS V13.01,2013-08-08 23:23:00,
2013-08-08 18:28:00,74.5,56.9,18.79,NE,34,0.0,0.0,54,0.00,,OVC,0.00,VWS V13.01,2013-08-08 23:28:00,
2013-08-08 18:33:00,74.3,56.8,18.79,NE,34,0.0,0.0,54,0.00,,OVC,0.00,VWS V13.01,2013-08-08 23:33:00,
2013-08-08 18:38:00,74.3,56.8,18.79,NE,34,0.0,0.0,54,0.00,,OVC,0.00,VWS V13.01,2013-08-08 23:38:00,
2013-08-08 18:43:00,74.3,57.5,18.79,NE,34,0.0,0.0,56,0.00,,OVC,0.00,VWS V13.01,2013-08-08 23:43:00,
2013-08-08 18:48:00,74.3,57.5,18.79,NE,34,0.0,0.0,56,0.00,,OVC,0.00,VWS V13.01,2013-08-08 23:48:00,
2013-08-08 18:53:00,74.1,57.3,18.79,NE,34,0.0,2.2,56,0.00,,OVC,0.00,VWS V13.01,2013-08-08 23:53:00,
2013-08-08 18:58:00,74.1,57.3,18.79,NE,34,0.0,0.0,56,0.00,,OVC,0.00,VWS V13.01,2013-08-08 23:58:00,
2013-08-08 19:03:00,73.9,57.2,18.79,NE,34,0.0,0.0,56,0.00,,OVC,0.00,VWS V13.01,2013-08-09 00:03:00,
2013-08-08 19:08:00,73.8,57.0,18.79,NE,34,0.0,0.0,56,0.00,,OVC,0.00,VWS V13.01,2013-08-09 00:08:00,
2013-08-08 19:13:00,73.8,57.0,18.79,NE,34,0.0,0.0,56,0.00,,OVC,0.00,VWS V13.01,2013-08-09 00:13:00,
2013-08-08 19:18:00,73.6,56.8,18.79,NE,34,0.0,0.0,56,0.00,,OVC,0.00,VWS V13.01,2013-08-09 00:18:00,
2013-08-08 19:23:00,73.4,56.7,18.79,NE,34,0.0,0.0,56,0.00,,OVC,0.00,VWS V13.01,2013-08-09 00:23:00,
2013-08-08 19:28:00,73.2,56.5,18.79,NE,34,0.0,0.0,56,0.00,,OVC,0.00,VWS V13.01,2013-08-09 00:28:00,
2013-08-08 19:33:00,73.2,56.5,18.79,NE,35,0.0,0.0,56,0.00,,OVC,0.00,VWS V13.01,2013-08-09 00:33:00,
2013-08-08 19:38:00,73.2,56.5,18.79,NE,34,0.0,0.0,56,0.00,,OVC,0.00,VWS V13.01,2013-08-09 00:38:00,
2013-08-08 19:43:00,73.0,56.3,18.79,NE,35,0.0,0.0,56,0.00,,OVC,0.00,VWS V13.01,2013-08-09 00:43:00,
2013-08-08 19:48:00,72.9,56.2,18.79,NE,36,0.0,2.2,56,0.00,,OVC,0.00,VWS V13.01,2013-08-09 00:48:00,
2013-08-08 19:54:00,72.7,56.0,18.79,NE,36,0.0,0.0,56,0.00,,OVC,0.00,VWS V13.01,2013-08-09 00:54:00,
2013-08-08 20:00:00,72.3,55.6,18.79,NE,36,0.0,0.0,56,0.00,,OVC,0.00,VWS V13.01,2013-08-09 01:00:00,
2013-08-08 20:05:00,72.0,55.3,18.79,NE,36,0.0,0.0,56,0.00,,OVC,0.00,VWS V13.01,2013-08-09 01:05:00,
2013-08-08 20:10:00,71.4,54.8,18.79,NE,36,0.0,0.0,56,0.00,,OVC,0.00,VWS V13.01,2013-08-09 01:10:00,
2013-08-08 20:15:00,71.1,55.2,18.79,NE,36,0.0,0.0,57,0.00,,OVC,0.00,VWS V13.01,2013-08-09 01:15:00,
2013-08-08 20:20:00,70.7,54.8,18.79,NE,36,0.0,0.0,57,0.00,,OVC,0.00,VWS V13.01,2013-08-09 01:20:00,
2013-08-08 20:25:00,70.3,54.5,18.79,NE,36,0.0,0.0,57,0.00,,OVC,0.00,VWS V13.01,2013-08-09 01:25:00,
2013-08-08 20:30:00,70.2,54.3,18.79,NE,36,0.0,0.0,57,0.00,,OVC,0.00,VWS V13.01,2013-08-09 01:30:00,
2013-08-08 20:35:00,69.8,54.0,18.79,NE,35,0.0,0.0,57,0.00,,OVC,0.00,VWS V13.01,2013-08-09 01:35:00,
2013-08-08 20:40:00,69.6,53.8,18.79,NE,36,0.0,0.0,57,0.00,,OVC,0.00,VWS V13.01,2013-08-09 01:40:00,
2013-08-08 20:46:00,69.3,53.5,18.79,NE,36,0.0,0.0,57,0.00,,OVC,0.00,VWS V13.01,2013-08-09 01:46:00,
2013-08-08 20:51:00,68.9,53.2,18.79,NE,36,0.0,0.0,57,0.00,,OVC,0.00,VWS V13.01,2013-08-09 01:51:00,
2013-08-08 20:56:00,68.7,53.7,18.79,NE,36,0.0,0.0,59,0.00,,OVC,0.00,VWS V13.01,2013-08-09 01:56:00,
2013-08-08 21:01:00,68.4,53.3,18.79,NE,36,0.0,0.0,59,0.00,,OVC,0.00,VWS V13.01,2013-08-09 02:01:00,
2013-08-08 21:06:00,68.0,53.0,18.79,NE,36,0.0,0.0,59,0.00,,OVC,0.00,VWS V13.01,2013-08-09 02:06:00,
2013-08-08 21:11:00,67.8,52.8,18.79,NE,36,0.0,0.0,59,0.00,,OVC,0.00,VWS V13.01,2013-08-09 02:11:00,
2013-08-08 21:16:00,67.6,53.3,18.79,NE,36,0.0,0.0,60,0.00,,OVC,0.00,VWS V13.01,2013-08-09 02:16:00,
2013-08-08 21:22:00,67.5,53.1,18.79,NE,36,0.0,0.0,60,0.00,,OVC,0.00,VWS V13.01,2013-08-09 02:22:00,
2013-08-08 21:27:00,67.3,53.0,18.79,NE,36,0.0,0.0,60,0.00,,OVC,0.00,VWS V13.01,2013-08-09 02:27:00,
2013-08-08 21:32:00,67.1,52.8,18.79,NE,36,0.0,0.0,60,0.00,,OVC,0.00,VWS V13.01,2013-08-09 02:32:00,
2013-08-08 21:37:00,67.1,53.4,18.79,NE,35,0.0,0.0,61,0.00,,OVC,0.00,VWS V13.01,2013-08-09 02:37:00,
2013-08-08 21:42:00,66.9,53.3,18.79,NE,36,0.0,0.0,61,0.00,,OVC,0.00,VWS V13.01,2013-08-09 02:42:00,
2013-08-08 21:47:00,66.7,53.1,18.79,NE,35,0.0,0.0,61,0.00,,OVC,0.00,VWS V13.01,2013-08-09 02:47:00,
2013-08-08 21:52:00,66.7,53.1,18.79,NE,36,0.0,0.0,61,0.00,,OVC,0.00,VWS V13.01,2013-08-09 02:52:00,
2013-08-08 21:57:00,66.7,53.7,18.79,NE,35,0.0,0.0,63,0.00,,OVC,0.00,VWS V13.01,2013-08-09 02:57:00,
2013-08-08 22:03:00,66.6,53.5,18.79,NE,35,0.0,0.0,63,0.00,,OVC,0.00,VWS V13.01,2013-08-09 03:03:00,
2013-08-08 22:08:00,66.6,53.5,18.79,NE,36,0.0,0.0,63,0.00,,OVC,0.00,VWS V13.01,2013-08-09 03:08:00,
2013-08-08 22:13:00,66.4,53.4,18.79,NE,36,0.0,0.0,63,0.00,,OVC,0.00,VWS V13.01,2013-08-09 03:13:00,
2013-08-08 22:18:00,66.2,53.2,18.79,NE,35,0.0,0.0,63,0.00,,OVC,0.00,VWS V13.01,2013-08-09 03:18:00,
2013-08-08 22:23:00,66.0,53.7,18.79,NE,36,0.0,0.0,64,0.00,,OVC,0.00,VWS V13.01,2013-08-09 03:23:00,
2013-08-08 22:28:00,66.0,53.7,18.79,NE,36,0.0,0.0,64,0.00,,OVC,0.00,VWS V13.01,2013-08-09 03:28:00,
2013-08-08 22:33:00,66.0,53.7,18.79,NE,36,0.0,0.0,64,0.00,,OVC,0.00,VWS V13.01,2013-08-09 03:33:00,
2013-08-08 22:38:00,66.0,53.7,18.79,NE,36,0.0,0.0,64,0.00,,OVC,0.00,VWS V13.01,2013-08-09 03:38:00,
2013-08-08 22:43:00,66.0,54.2,18.79,NE,36,0.0,0.0,66,0.00,,OVC,0.00,VWS V13.01,2013-08-09 03:43:00,
2013-08-08 22:48:00,66.0,54.2,18.79,NE,35,0.0,0.0,66,0.00,,OVC,0.00,VWS V13.01,2013-08-09 03:48:00,
2013-08-08 22:53:00,66.2,54.4,18.79,NE,36,0.0,0.0,66,0.00,,OVC,0.00,VWS V13.01,2013-08-09 03:53:00,
2013-08-08 22:59:00,66.6,54.8,18.79,NE,36,0.0,0.0,66,0.00,,OVC,0.00,VWS V13.01,2013-08-09 03:59:00,
2013-08-08 23:01:00,66.7,54.9,18.79,NE,35,0.0,0.0,66,0.00,,OVC,0.00,VWS V13.01,2013-08-09 04:01:00,
2013-08-08 23:06:00,67.1,54.7,18.79,NE,36,0.0,0.0,64,0.00,,OVC,0.00,VWS V13.01,2013-08-09 04:06:00,
2013-08-08 23:11:00,67.3,54.2,18.79,NE,36,0.0,0.0,63,0.00,,OVC,0.00,VWS V13.01,2013-08-09 04:11:00,
2013-08-08 23:16:00,67.3,54.2,18.79,NE,36,0.0,0.0,63,0.00,,OVC,0.00,VWS V13.01,2013-08-09 04:16:00,
2013-08-08 23:21:00,67.1,54.1,18.79,NE,36,0.0,0.0,63,0.00,,OVC,0.00,VWS V13.01,2013-08-09 04:21:00,
2013-08-08 23:26:00,66.9,53.3,18.79,NE,36,0.0,0.0,61,0.00,,OVC,0.00,VWS V13.01,2013-08-09 04:26:00,
2013-08-08 23:31:00,66.6,52.9,18.79,NE,36,0.0,0.0,61,0.00,,OVC,0.00,VWS V13.01,2013-08-09 04:31:00,
2013-08-08 23:36:00,66.2,52.6,18.79,NE,36,0.0,0.0,61,0.00,,OVC,0.00,VWS V13.01,2013-08-09 04:36:00,
2013-08-08 23:41:00,65.8,52.9,18.79,NE,36,0.0,0.0,63,0.00,,OVC,0.00,VWS V13.01,2013-08-09 04:41:00,
2013-08-08 23:46:00,65.7,52.7,18.79,NE,36,0.0,0.0,63,0.00,,OVC,0.00,VWS V13.01,2013-08-09 04:46:00,
2013-08-08 23:51:00,65.1,52.2,18.79,NE,36,0.0,0.0,63,0.00,,OVC,0.00,VWS V13.01,2013-08-09 04:51:00,
2013-08-08 23:56:00,64.8,51.8,18.79,NE,36,0.0,0.0,63,0.00,,OVC,0.00,VWS V13.01,2013-08-09 04:56:00,